User: anonymous   Login
Location: Unspecified
(0.0000°N, 0.0000°E)
Time: 02:06:46
(UTC+00:00)
Language:

STARLINK-5866 - Orbit

View from above orbital plane
View from above orbital plane
View from above satellite
View from above satellite

Ground track
Ground track

The orbit is defined by the following mean orbital elements,

1 57233U          26145.50791308 +.00000000 +00000-0 +19529-4 0 00004
2 57233  43.0031 316.9084 0001076 267.5225  92.5504 15.27577801    05
Epoch (UTC): 25 May 2026 12:11:23
Eccentricity: 0.0001076
inclination: 43.0031°
perigee height: 482 km
apogee height: 484 km
right ascension of ascending node: 316.9084°
argument of perigee: 267.5225°
revolutions per day: 15.27577801
mean anomaly at epoch: 92.5504°

The dashed part of the orbit path shows where the satellite is in the earth's shadow,  

DLR